Location: Potomac Astrometric Observatory
(39.0475°N, 77.2064°W)
Time: 01:41:03
(UTC-04:00)

OTV 5 (USA 277) - Visible Passes

Search period start: 20 October 2019 00:00
Search period end: 30 October 2019 00:00
Orbit: 310 x 324 km, 54.5° (Epoch: 17 October)

Date Brightness Start Highest point End Pass type
(mag) Time Alt. Az. Time Alt. Az. Time Alt. Az.
20 Oct ? 05:37:48 31° NE 05:37:48 31° NE 05:40:05 10° ESE visible
21 Oct ? 05:52:34 61° SSE 05:52:34 61° SSE 05:54:54 10° SE visible
22 Oct ? 06:07:29 20° SSW 06:07:29 20° SSW 06:08:54 10° S visible
26 Oct ? 20:12:32 10° SW 20:12:58 14° SW 20:12:58 14° SW visible
27 Oct ? 18:54:13 10° SSE 18:55:45 14° SE 18:56:48 12° ESE visible
27 Oct ? 20:27:20 10° WSW 20:27:43 13° W 20:27:43 13° W visible
28 Oct ? 19:07:31 10° SSW 19:10:06 41° SE 19:11:24 23° ENE visible
29 Oct ? 19:21:56 10° WSW 19:24:37 55° NW 19:25:53 26° NNE visible
